EW6141 Weather Reports


time (UTC)temp
C
wind
direction
speed
KPH
gust
KPH
rain 1hr
cm
rain 24hr
cm
rain mn
cm
humidity
%
barometer
mb
20220124105732 10 346 1.6 6.4 0.03 0.33 0.18 92 1013.0
20220124105225 10 277 1.6 4.8 0.03 0.33 0.15 92 1013.0
20220124104718 10 329 1.6 4.8 0.03 0.33 0.15 92 1013.0
20220124104214 10 277 0.0 4.8 0.03 0.33 0.15 92 1013.0
20220124103706 10 304 0.0 4.8 0.03 0.33 0.15 92 1013.1
20220124103200 10 317 1.6 6.4 0.05 0.33 0.15 92 1013.1
20220124102653 10 339 1.6 6.4 0.05 0.33 0.15 92 1013.1
20220124102147 10 319 0.0 4.8 0.05 0.33 0.15 92 1013.1
20220124101642 10 303 0.0 4.8 0.08 0.33 0.15 92 1013.1
20220124101136 10 299 0.0 4.8 0.08 0.33 0.15 92 1013.2
20220124100629 10 281 0.0 3.2 0.08 0.33 0.15 92 1013.2
20220124100124 10 281 0.0 6.4 0.08 0.33 0.15 92 1013.1
20220124095618 10 281 1.6 6.4 0.05 0.30 0.13 92 1013.2
20220124095112 10 311 0.0 3.2 0.05 0.30 0.13 92 1013.3
20220124094607 10 275 0.0 1.6 0.05 0.30 0.13 92 1013.4
20220124094100 10 275 0.0 1.6 0.05 0.30 0.13 92 1013.5
20220124093553 10 275 0.0 6.4 0.05 0.30 0.13 92 1013.6
20220124093047 10 275 1.6 6.4 0.03 0.28 0.10 92 1013.5
20220124092542 10 263 1.6 6.4 0.05 0.28 0.10 92 1013.7
20220124092036 10 268 1.6 6.4 0.05 0.28 0.10 92 1013.8
20220124091533 10 275 1.6 6.4 0.03 0.25 0.08 92 1013.7
20220124091027 10 261 1.6 4.8 0.03 0.25 0.08 92 1013.8
20220124090519 10 260 1.6 4.8 0.03 0.25 0.08 92 1013.9
20220124090023 10 286 1.6 4.8 0.05 0.25 0.08 92 1013.8
20220124085516 10 277 1.6 6.4 0.05 0.25 0.08 92 1014.0
20220124085010 10 274 3.2 11.3 0.05 0.25 0.08 92 1014.0
20220124084453 10 246 1.6 11.3 0.05 0.25 0.08 92 1014.1
20220124083947 10 300 1.6 6.4 0.05 0.25 0.08 92 1014.1
20220124083443 10 286 1.6 6.4 0.05 0.25 0.08 92 1014.0
20220124082937 10 267 1.6 6.4 0.05 0.25 0.08 92 1014.0
20220124082430 10 266 1.6 6.4 0.03 0.23 0.05 92 1014.0
20220124081923 10 272 1.6 6.4 0.03 0.23 0.05 92 1014.2
20220124081418 10 251 1.6 6.4 0.03 0.23 0.05 92 1014.1
20220124080922 10 298 1.6 6.4 0.03 0.23 0.05 92 1014.2
20220124080415 10 273 1.6 6.4 0.03 0.23 0.05 92 1014.3
20220124075910 10 255 1.6 9.7 0.00 0.20 0.03 92 1014.5
20220124075404 10 264 1.6 9.7 0.00 0.20 0.03 92 1014.5
20220124074857 10 268 1.6 6.4 0.00 0.20 0.03 92 1014.6
20220124074351 10 305 0.0 3.2 0.00 0.20 0.03 92 1014.5
20220124073846 10 305 0.0 3.2 0.00 0.20 0.03 92 1014.5
20220124073340 10 305 0.0 3.2 0.00 0.20 0.03 92 1014.7
20220124072833 10 305 0.0 3.2 0.00 0.20 0.03 92 1014.7
20220124072332 10 305 0.0 3.2 0.00 0.20 0.03 92 1014.7
20220124071831 10 305 0.0 3.2 0.00 0.20 0.03 92 1014.9
20220124071331 10 305 0.0 3.2 0.00 0.20 0.03 92 1015.0
20220124070822 10 305 0.0 3.2 0.00 0.23 0.03 92 1014.9
20220124070324 10 309 0.0 1.6 0.03 0.23 0.03 92 1015.0
20220124065829 10 309 0.0 1.6 0.03 0.23 0.03 92 1015.0
20220124065321 10 309 0.0 1.6 0.03 0.23 0.03 92 1015.1
20220124064832 10 309 0.0 1.6 0.03 0.23 0.03 92 1015.2
20220124064323 10 319 0.0 1.6 0.03 0.23 0.03 92 1015.2
20220124063817 10 319 0.0 0.0 0.03 0.23 0.03 92 1015.3
20220124063321 10 319 0.0 0.0 0.03 0.23 0.03 92 1015.4
20220124062817 10 319 0.0 0.0 0.03 0.23 0.03 92 1015.4
20220124062318 10 319 0.0 0.0 0.03 0.25 0.03 92 1015.5
20220124061818 10 319 0.0 0.0 0.03 0.25 0.03 92 1015.6
20220124061319 10 319 0.0 1.6 0.03 0.25 0.03 92 1015.7
20220124060818 10 319 0.0 1.6 0.03 0.25 0.03 92 1015.8
20220124060317 10 319 0.0 1.6 0.00 0.23 0.00 92 1015.8
20220124055818 10 319 0.0 0.0 0.00 0.23 0.23 92 1015.8
20220124055317 10 319 0.0 0.0 0.03 0.23 0.23 92 1015.8
20220124054819 10 319 0.0 0.0 0.03 0.23 0.23 92 1015.7
20220124054318 10 319 0.0 1.6 0.03 0.23 0.23 92 1015.9
20220124053818 10 319 0.0 1.6 0.03 0.23 0.23 92 1016.2
20220124053320 10 319 0.0 1.6 0.03 0.23 0.23 92 1016.2
20220124052821 11 319 0.0 1.6 0.03 0.25 0.23 92 1016.5
20220124052319 11 319 0.0 1.6 0.03 0.25 0.23 92 1016.5
20220124051818 11 319 0.0 1.6 0.03 0.25 0.23 92 1016.6
20220124051318 11 319 0.0 1.6 0.03 0.25 0.23 92 1016.5
20220124050817 11 319 0.0 1.6 0.03 0.25 0.23 92 1016.7
20220124050318 11 319 0.0 0.0 0.03 0.25 0.23 92 1016.7
20220124045815 11 319 0.0 0.0 0.03 0.25 0.23 92 1016.8
20220124045317 11 319 0.0 0.0 0.00 0.23 0.20 92 1016.8
20220124044815 11 319 0.0 0.0 0.00 0.23 0.20 92 1016.9
20220124044313 11 319 0.0 1.6 0.00 0.25 0.20 92 1016.9
20220124043812 11 319 0.0 1.6 0.00 0.25 0.20 92 1017.0
20220124043310 11 319 0.0 1.6 0.00 0.25 0.20 92 1017.1
20220124042810 11 319 0.0 1.6 0.00 0.25 0.20 92 1017.1
20220124042310 11 319 0.0 4.8 0.00 0.25 0.20 92 1017.1
20220124041807 11 319 0.0 4.8 0.00 0.25 0.20 92 1017.3
20220124041309 11 319 0.0 4.8 0.03 0.25 0.20 92 1017.4
20220124040807 11 319 0.0 4.8 0.03 0.28 0.20 92 1017.3
20220124040307 11 340 0.0 1.6 0.03 0.28 0.20 92 1017.4
20220124035807 11 355 0.0 1.6 0.03 0.28 0.20 92 1017.6
20220124035305 11 279 0.0 1.6 0.05 0.30 0.20 92 1017.5
20220124034755 11 279 0.0 1.6 0.05 0.30 0.20 92 1017.6
20220124034250 11 279 0.0 1.6 0.05 0.30 0.20 92 1017.6
20220124033746 11 279 0.0 3.2 0.05 0.30 0.20 92 1017.8
20220124033237 11 279 0.0 3.2 0.05 0.30 0.20 92 1017.7
20220124032733 11 279 0.0 3.2 0.05 0.30 0.20 92 1017.9
20220124032224 11 279 0.0 1.6 0.05 0.30 0.20 92 1018.0
20220124031718 11 280 0.0 3.2 0.08 0.33 0.20 92 1018.0
20220124031215 11 280 0.0 3.2 0.05 0.30 0.18 92 1018.2
20220124030708 11 281 0.0 1.6 0.05 0.30 0.18 92 1018.2
20220124030202 11 280 0.0 3.2 0.05 0.30 0.18 92 1018.1
20220124025655 11 280 0.0 3.2 0.05 0.30 0.18 92 1018.0
20220124025149 11 293 0.0 1.6 0.03 0.30 0.15 91 1018.1
20220124024644 11 293 0.0 0.0 0.03 0.30 0.15 91 1018.1
20220124024136 11 293 0.0 1.6 0.03 0.30 0.15 91 1018.2
20220124023631 11 293 0.0 1.6 0.03 0.30 0.15 91 1018.2
20220124023126 11 293 0.0 3.2 0.05 0.30 0.15 91 1018.2
20220124022621 11 293 0.0 3.2 0.05 0.30 0.15 91 1018.2
20220124022114 11 325 0.0 1.6 0.03 0.28 0.15 91 1018.0
20220124021607 11 325 0.0 1.6 0.03 0.28 0.13 91 1017.9
20220124021102 11 325 0.0 1.6 0.03 0.28 0.13 91 1017.9
20220124020601 11 325 0.0 1.6 0.03 0.28 0.13 91 1017.8
20220124020050 11 325 0.0 1.6 0.03 0.30 0.13 91 1018.0
20220124015543 11 325 0.0 1.6 0.03 0.30 0.13 91 1017.9
20220124015038 11 325 0.0 1.6 0.03 0.30 0.13 91 1017.9
20220124014530 11 325 0.0 1.6 0.03 0.30 0.13 91 1017.8
20220124014024 12 325 0.0 1.6 0.05 0.33 0.13 91 1017.6
20220124013519 12 325 0.0 1.6 0.05 0.33 0.13 91 1017.8
20220124013015 12 325 0.0 1.6 0.03 0.30 0.10 91 1017.8
20220124012507 11 325 0.0 1.6 0.03 0.30 0.10 91 1017.7
20220124012002 11 325 0.0 1.6 0.03 0.30 0.10 91 1017.6
20220124011455 11 325 0.0 1.6 0.03 0.30 0.10 91 1017.8
20220124010949 11 325 0.0 1.6 0.05 0.30 0.10 90 1017.9
20220124010443 11 325 0.0 0.0 0.05 0.30 0.10 90 1017.7
20220124005938 12 325 0.0 0.0 0.05 0.30 0.10 90 1017.7
20220124005431 12 325 0.0 0.0 0.05 0.33 0.10 90 1017.8
20220124004926 12 325 0.0 1.6 0.05 0.33 0.10 90 1017.9
20220124004421 12 325 0.0 1.6 0.03 0.30 0.08 90 1017.9
20220124003912 12 325 0.0 1.6 0.03 0.30 0.08 90 1017.9
20220124003408 12 325 0.0 0.0 0.03 0.30 0.08 90 1018.0
20220124002900 12 325 0.0 1.6 0.03 0.30 0.08 90 1018.1
20220124002356 12 325 0.0 1.6 0.03 0.30 0.08 90 1018.0
20220124001848 12 325 0.0 1.6 0.03 0.30 0.08 90 1018.1
20220124001343 12 325 0.0 1.6 0.03 0.30 0.08 90 1018.1
20220124000837 12 325 0.0 0.0 0.00 0.30 0.05 90 1017.9
20220124000332 12 325 0.0 0.0 0.00 0.30 0.05 90 1017.9
20220123235825 12 325 0.0 0.0 0.00 0.30 0.05 90 1017.9
20220123235319 12 325 0.0 0.0 0.00 0.30 0.05 90 1018.0
20220123234814 12 325 0.0 0.0 0.00 0.30 0.05 90 1018.0
20220123234308 12 325 0.0 0.0 0.00 0.30 0.05 90 1018.2
20220123233801 12 325 0.0 0.0 0.00 0.30 0.05 90 1018.2
20220123233255 12 325 0.0 0.0 0.00 0.30 0.05 90 1018.0
20220123232750 12 325 0.0 0.0 0.00 0.30 0.05 90 1018.1
20220123232245 12 325 0.0 1.6 0.00 0.30 0.05 90 1018.1
20220123231737 12 325 0.0 1.6 0.00 0.30 0.05 90 1018.2
20220123231231 12 325 0.0 1.6 0.00 0.30 0.05 90 1018.2
20220123230727 12 325 0.0 1.6 0.00 0.30 0.05 90 1018.4
20220123230218 12 325 0.0 1.6 0.00 0.30 0.05 90 1018.4
20220123225717 12 325 0.0 1.6 0.00 0.30 0.05 90 1018.4
20220123225212 11 325 0.0 1.6 0.00 0.30 0.05 90 1018.5
20220123224701 11 325 0.0 1.6 0.00 0.30 0.05 90 1018.6
20220123224155 11 325 0.0 1.6 0.00 0.30 0.05 90 1018.5
20220123223649 11 325 0.0 3.2 0.00 0.30 0.05 90 1018.6
20220123223144 11 325 0.0 3.2 0.00 0.30 0.05 90 1018.5
20220123222636 11 325 0.0 3.2 0.00 0.30 0.05 90 1018.6
20220123222135 11 318 0.0 1.6 0.00 0.30 0.05 90 1018.6
20220123221634 11 318 0.0 3.2 0.00 0.30 0.05 90 1018.7
20220123221134 11 318 0.0 3.2 0.00 0.30 0.05 90 1018.8
20220123220639 11 298 0.0 3.2 0.00 0.30 0.05 90 1018.8
20220123220133 11 298 0.0 3.2 0.00 0.30 0.05 90 1018.9
20220123215631 11 298 0.0 1.6 0.00 0.30 0.05 90 1019.0
20220123215132 11 298 0.0 3.2 0.00 0.30 0.05 90 1019.0
20220123214631 11 298 0.0 4.8 0.00 0.30 0.05 90 1019.1
20220123214131 11 298 0.0 4.8 0.00 0.30 0.05 90 1019.2
20220123213630 11 299 0.0 1.6 0.00 0.30 0.05 90 1019.1
20220123213130 11 294 0.0 3.2 0.00 0.30 0.05 90 1019.2
20220123212631 11 294 0.0 4.8 0.00 0.30 0.05 90 1019.2
20220123212133 11 338 1.6 4.8 0.00 0.30 0.05 89 1019.3
20220123211631 11 274 1.6 6.4 0.00 0.30 0.05 89 1019.5
20220123211127 11 320 0.0 6.4 0.00 0.30 0.05 89 1019.7
20220123210627 11 337 1.6 4.8 0.00 0.30 0.05 89 1019.8
20220123210128 11 316 1.6 4.8 0.00 0.30 0.05 89 1019.8
20220123205627 11 294 0.0 1.6 0.00 0.30 0.05 89 1019.8
20220123205128 11 294 0.0 4.8 0.00 0.30 0.05 89 1019.9
20220123204627 11 342 1.6 6.4 0.00 0.30 0.05 88 1019.9
20220123204126 11 323 1.6 6.4 0.00 0.33 0.05 88 1020.0
20220123203627 11 284 1.6 4.8 0.00 0.33 0.05 88 1020.0
20220123203127 11 317 1.6 6.4 0.00 0.33 0.05 88 1020.0
20220123202626 11 282 1.6 11.3 0.00 0.33 0.05 88 1019.9
20220123202126 11 342 1.6 11.3 0.00 0.33 0.05 87 1020.1
20220123201627 11 346 1.6 8.0 0.00 0.33 0.05 87 1020.4
20220123201129 11 331 1.6 8.0 0.00 0.33 0.05 87 1020.4
20220123200628 11 292 1.6 6.4 0.00 0.33 0.05 87 1020.4
20220123200127 11 316 1.6 9.7 0.00 0.33 0.05 87 1020.4
20220123195627 11 318 3.2 9.7 0.00 0.36 0.05 87 1020.5
20220123195126 11 309 1.6 8.0 0.00 0.36 0.05 87 1020.5
20220123194626 11 306 1.6 8.0 0.00 0.36 0.05 87 1020.7
20220123194127 11 346 1.6 8.0 0.00 0.36 0.05 87 1020.9
20220123193626 11 338 1.6 8.0 0.00 0.36 0.05 87 1021.0
20220123193126 11 306 3.2 8.0 0.00 0.36 0.05 87 1021.1
20220123192627 11 319 1.6 8.0 0.00 0.36 0.05 87 1021.2
20220123192127 11 329 1.6 8.0 0.00 0.36 0.05 87 1021.2
20220123191627 11 288 1.6 8.0 0.00 0.36 0.05 87 1021.4
20220123191126 10 314 1.6 8.0 0.00 0.36 0.05 87 1021.4
20220123190624 10 313 1.6 8.0 0.00 0.38 0.05 87 1021.6
20220123190126 10 304 1.6 8.0 0.00 0.38 0.05 87 1021.8
20220123185618 10 327 1.6 8.0 0.00 0.38 0.05 87 1021.8
20220123185113 10 317 1.6 8.0 0.00 0.38 0.05 87 1021.9
20220123184605 10 331 1.6 8.0 0.00 0.38 0.05 87 1022.1
20220123184100 10 331 1.6 8.0 0.00 0.38 0.05 86 1022.1
20220123183553 10 321 1.6 8.0 0.00 0.38 0.05 86 1022.4
20220123183048 10 346 1.6 6.4 0.00 0.38 0.05 86 1022.5
20220123182549 10 348 1.6 8.0 0.00 0.38 0.05 86 1022.8
20220123182035 10 315 1.6 8.0 0.00 0.38 0.05 86 1022.9
20220123181529 10 279 1.6 6.4 0.00 0.38 0.05 86 1023.1
20220123181024 10 308 1.6 6.4 0.00 0.38 0.05 85 1023.2
20220123180518 10 304 1.6 8.0 0.00 0.38 0.05 85 1023.2
20220123180011 10 332 1.6 8.0 0.00 0.38 0.05 86 1023.2
20220123175506 10 312 1.6 12.9 0.00 0.38 0.05 85 1023.4
20220123175001 10 340 1.6 12.9 0.00 0.38 0.05 85 1023.5
20220123174453 10 355 3.2 9.7 0.00 0.38 0.05 85 1023.6
20220123173947 10 327 3.2 9.7 0.00 0.41 0.05 85 1023.7
20220123173446 10 325 3.2 8.0 0.00 0.41 0.05 85 1023.8
20220123172932 10 325 3.2 12.9 0.00 0.41 0.05 85 1023.9
20220123172426 10 18 3.2 12.9 0.00 0.41 0.05 84 1023.9
20220123171919 10 339 1.6 12.9 0.00 0.41 0.05 84 1023.8
20220123171414 10 327 1.6 6.4 0.00 0.41 0.05 85 1023.9
20220123170908 10 355 1.6 4.8 0.00 0.41 0.05 85 1024.0
20220123170402 10 348 0.0 4.8 0.00 0.41 0.05 84 1024.0
20220123165857 10 311 1.6 4.8 0.00 0.41 0.05 84 1024.1
20220123165350 10 331 1.6 4.8 0.00 0.41 0.05 84 1024.2
20220123164845 10 308 1.6 8.0 0.00 0.41 0.05 84 1024.4
20220123164338 10 321 1.6 9.7 0.00 0.41 0.05 84 1024.4
20220123163832 10 346 1.6 9.7 0.00 0.41 0.05 84 1024.5
20220123163327 10 319 1.6 6.4 0.00 0.41 0.05 83 1024.6
20220123162821 10 316 1.6 6.4 0.00 0.41 0.05 83 1024.5
20220123162317 10 348 1.6 6.4 0.00 0.41 0.05 82 1024.5
20220123161808 10 317 1.6 6.4 0.00 0.41 0.05 82 1024.4
20220123161303 10 344 1.6 8.0 0.00 0.41 0.05 81 1024.3
20220123160756 10 343 1.6 8.0 0.00 0.41 0.05 80 1024.3
20220123160252 10 309 1.6 8.0 0.00 0.41 0.05 81 1024.2
20220123155743 10 336 1.6 8.0 0.00 0.41 0.05 81 1024.2
20220123155238 10 340 1.6 8.0 0.00 0.41 0.05 80 1024.3
20220123154732 10 111 1.6 8.0 0.00 0.41 0.05 79 1024.1
20220123154225 10 305 1.6 8.0 0.00 0.41 0.05 77 1024.0
20220123153719 10 334 0.0 6.4 0.00 0.41 0.05 76 1024.0
20220123153213 10 323 0.0 6.4 0.00 0.41 0.05 75 1024.0
20220123152708 10 307 1.6 9.7 0.00 0.41 0.05 73 1024.0
20220123152201 10 311 1.6 9.7 0.00 0.41 0.05 72 1024.0
20220123151656 10 355 0.0 6.4 0.00 0.41 0.05 71 1023.9
20220123151149 10 315 1.6 8.0 0.00 0.41 0.05 72 1023.9
20220123150646 10 313 1.6 8.0 0.00 0.41 0.05 71 1023.9
20220123150138 10 338 1.6 6.4 0.00 0.41 0.05 72 1023.9
20220123145633 10 337 1.6 12.9 0.00 0.41 0.05 71 1023.9
20220123145125 10 322 1.6 12.9 0.00 0.41 0.05 71 1023.9
20220123144620 10 319 0.0 8.0 0.00 0.41 0.05 72 1023.9
20220123144114 10 306 1.6 4.8 0.00 0.41 0.05 72 1023.8
20220123143608 10 299 0.0 4.8 0.00 0.41 0.05 71 1023.8
20220123143102 10 293 0.0 3.2 0.00 0.41 0.05 73 1023.9
20220123142556 10 318 0.0 3.2 0.00 0.41 0.05 73 1023.8
20220123142049 10 318 0.0 3.2 0.00 0.41 0.05 74 1023.7
20220123141544 10 309 0.0 3.2 0.00 0.41 0.05 74 1023.6
20220123141039 10 333 0.0 9.7 0.00 0.41 0.05 74 1023.4
20220123140537 10 91 0.0 9.7 0.00 0.41 0.05 74 1023.4
20220123140029 10 333 0.0 8.0 0.00 0.41 0.05 76 1023.4
20220123135520 10 333 0.0 8.0 0.00 0.41 0.05 76 1023.4
20220123135017 10 344 0.0 6.4 0.00 0.41 0.05 76 1023.4
20220123134507 10 332 0.0 4.8 0.00 0.41 0.05 76 1023.3
20220123134002 10 338 0.0 4.8 0.00 0.41 0.05 76 1023.3
20220123133456 10 333 1.6 9.7 0.00 0.41 0.05 77 1023.2
20220123132951 10 309 0.0 9.7 0.00 0.41 0.05 75 1023.3
20220123132443 10 327 1.6 12.9 0.00 0.41 0.05 76 1023.3
20220123131937 10 333 1.6 12.9 0.00 0.41 0.05 75 1023.4
20220123131432 9 290 1.6 6.4 0.00 0.41 0.05 76 1023.4
20220123130926 9 266 0.0 6.4 0.00 0.41 0.05 76 1023.3
20220123130419 9 312 0.0 3.2 0.00 0.41 0.05 78 1023.3
20220123125916 9 312 0.0 3.2 0.00 0.41 0.05 77 1023.2
20220123125407 9 320 0.0 1.6 0.00 0.41 0.05 78 1023.2
20220123124901 9 320 0.0 3.2 0.00 0.41 0.05 79 1023.2
20220123124355 9 320 0.0 3.2 0.00 0.41 0.05 80 1023.1
20220123123850 9 340 0.0 3.2 0.00 0.41 0.05 80 1023.0
20220123123346 9 304 0.0 3.2 0.00 0.41 0.05 81 1023.0
20220123122837 9 304 0.0 3.2 0.00 0.41 0.05 81 1023.0
20220123122331 9 304 0.0 3.2 0.00 0.41 0.05 82 1022.9
20220123121825 8 304 0.0 4.8 0.00 0.41 0.05 82 1022.8
20220123121320 8 321 0.0 4.8 0.00 0.41 0.05 83 1022.8
20220123120813 8 316 0.0 1.6 0.00 0.41 0.05 84 1022.8
20220123120308 8 309 0.0 1.6 0.00 0.41 0.05 85 1022.8
20220123115801 8 309 0.0 1.6 0.00 0.41 0.05 86 1022.8
20220123115255 8 309 0.0 1.6 0.00 0.41 0.05 87 1022.8
20220123114750 8 309 0.0 1.6 0.00 0.41 0.05 88 1022.7
20220123114243 8 309 0.0 1.6 0.00 0.41 0.05 88 1022.7
20220123113738 8 309 0.0 1.6 0.00 0.41 0.05 88 1022.7
20220123113233 8 309 0.0 3.2 0.00 0.41 0.05 89 1022.7
20220123112725 8 309 0.0 3.2 0.00 0.41 0.05 88 1022.9
20220123112221 8 309 0.0 1.6 0.00 0.41 0.05 89 1022.9
20220123111716 8 309 0.0 1.6 0.00 0.41 0.05 89 1023.0
20220123111220 8 309 0.0 1.6 0.00 0.41 0.05 89 1023.0
20220123110701 8 309 0.0 1.6 0.00 0.41 0.05 89 1022.8
20220123110201 8 309 0.0 1.6 0.00 0.41 0.05 90 1022.8